Columbia, SC

8:37 PM EDT on May 24, 2018 (GMT -0400)
Columbia Metro

Weather History for KCAE - September, 2012

Change the Weather History Date:

Friday, September 28, 2012

  Actual Average Record
Temperature  
Mean Temperature 77 °F 70 °F  
Max Temperature 89 °F 82 °F 96 °F (1986)
Min Temperature 64 °F 59 °F 41 °F (1985)
Degree Days  
Heating Degree Days 0 1  
Month to date heating degree days 0 5  
Since 1 July heating degree days 0 5  
Cooling Degree Days 12 6  
Month to date cooling degree days 309 287  
Year to date cooling degree days 2399 2055  
Growing Degree Days 26 (Base 50)    
Moisture  
Dew Point 65 °F    
Average Humidity 66    
Maximum Humidity 93    
Minimum Humidity 39    
Precipitation  
Precipitation 0.00 in 0.11 in 2.77 in (1980)
Month to date precipitation 1.53 3.31  
Year to date precipitation 35.90 35.23  
Sea Level Pressure  
Sea Level Pressure 30.05 in    
Wind  
Wind Speed 3 mph (WSW)    
Max Wind Speed 10 mph    
Max Gust Speed 15 mph    
Visibility 9 miles    
Events      
T = Trace of Precipitation, MM = Missing Value Source: NWS Daily Summary

Daily Weather History Graph

Daily Weather History Graph

Search for Another Location

Airport or City:

Astronomy

Sep. 28, 2012 Rise Set
Actual Time 7:17 AM EDT 7:12 PM EDT
Civil Twilight 6:52 AM EDT 7:37 PM EDT
Nautical Twilight 6:23 AM EDT 8:06 PM EDT
Astronomical Twilight 5:54 AM EDT 8:35 PM EDT
Moon 6:12 PM EDT (9/28) 5:48 AM EDT (9/28)
Length of Visible Light 12h 44m
Length of Day
11h 55m
Waxing Gibbous, 98% of the Moon is Illuminated
Sep 28
Waxing Gibbous
Sep 29
Full
Oct 8
Last Quarter
Oct 15
New
Oct 21
First Quarter

Hourly Weather History & Observations

Time (EDT) Temp. Heat Index Dew Point Humidity Pressure Visibility Wind Dir Wind Speed Gust Speed Precip Events Conditions
12:56 AM 70.0 °F - 64.9 °F 84% 30.11 in 10.0 mi WSW 4.6 mph - N/A   Clear
1:56 AM 68.0 °F - 64.0 °F 87% 30.11 in 10.0 mi West 3.5 mph - N/A   Clear
2:56 AM 66.9 °F - 64.9 °F 93% 30.10 in 9.0 mi Calm Calm - N/A   Partly Cloudy
3:56 AM 68.0 °F - 64.9 °F 90% 30.09 in 9.0 mi Calm Calm - N/A   Partly Cloudy
4:56 AM 66.9 °F - 64.9 °F 93% 30.09 in 8.0 mi West 3.5 mph - N/A   Clear
5:56 AM 66.0 °F - 63.0 °F 90% 30.08 in 8.0 mi West 3.5 mph - N/A   Clear
6:56 AM 66.9 °F - 64.0 °F 90% 30.09 in 6.0 mi Calm Calm - N/A   Partly Cloudy
7:56 AM 64.0 °F - 62.1 °F 93% 30.10 in 5.0 mi Calm Calm - N/A   Mostly Cloudy
8:56 AM 70.0 °F - 66.9 °F 90% 30.11 in 6.0 mi WSW 3.5 mph - N/A   Mostly Cloudy
9:56 AM 75.0 °F - 68.0 °F 79% 30.11 in 10.0 mi SW 4.6 mph - N/A   Mostly Cloudy
10:56 AM 82.0 °F 84.5 °F 66.9 °F 60% 30.11 in 10.0 mi WSW 4.6 mph - N/A   Mostly Cloudy
11:56 AM 84.0 °F 85.8 °F 64.9 °F 53% 30.10 in 10.0 mi West 6.9 mph - N/A   Mostly Cloudy
12:56 PM 84.9 °F 85.9 °F 63.0 °F 48% 30.08 in 10.0 mi West 9.2 mph - N/A   Mostly Cloudy
1:56 PM 84.9 °F 85.4 °F 62.1 °F 46% 30.05 in 10.0 mi WSW 5.8 mph - N/A   Mostly Cloudy
2:56 PM 87.1 °F 86.7 °F 60.1 °F 40% 30.02 in 10.0 mi West 6.9 mph - N/A   Mostly Cloudy
3:56 PM 87.1 °F 86.5 °F 59.0 °F 39% 30.00 in 10.0 mi West 4.6 mph - N/A   Mostly Cloudy
4:56 PM 86.0 °F 86.1 °F 61.0 °F 43% 29.98 in 10.0 mi Calm Calm - N/A   Mostly Cloudy
5:56 PM 84.9 °F 86.1 °F 64.0 °F 49% 29.98 in 10.0 mi WSW 3.5 mph - N/A   Mostly Cloudy
6:56 PM 82.9 °F 85.4 °F 66.9 °F 58% 29.98 in 10.0 mi SSE 3.5 mph - N/A   Mostly Cloudy
7:56 PM 79.0 °F - 66.9 °F 66% 30.00 in 10.0 mi Calm Calm - N/A   Mostly Cloudy
8:56 PM 78.1 °F - 66.9 °F 68% 30.00 in 10.0 mi Calm Calm - N/A   Mostly Cloudy
9:56 PM 75.9 °F - 66.9 °F 74% 30.00 in 10.0 mi Calm Calm - N/A   Mostly Cloudy
10:56 PM 73.0 °F - 66.9 °F 81% 30.01 in 10.0 mi SSW 3.5 mph - N/A   Mostly Cloudy
11:56 PM 73.0 °F - 66.9 °F 81% 30.00 in 10.0 mi Calm Calm - N/A   Scattered Clouds